Zurück zum Katalog

FENGYUN 1C DEB

AktivSSO
NORAD 30557·DEBRIS·🇨🇳 China

Gestartet May 10, 1999 von Taiyuan Satellite Launch Center

Loading…

Nächste Überflüge (nächste 24 Stunden)

TLE

AktuellSource: Space-Track

Epoche: Sep 14, 2026, 14:42 UTC

1 30557U 99025AKX 26257.61264990  .00001646  00000-0  90409-3 0  9996
2 30557  98.9030 325.7479 0069690 172.9856 187.2308 14.11883492  1917

Verfolge FENGYUN 1C DEB in Echtzeit mit AllMySat

Download on the App Store